Weather Roundup
Issued by NWS Corpus Christi, TX

Home | Current Version | Previous Version | Text Only | Print | Product List | Glossary On
Versions: 1 2 3 4 5 6 7 8 9 10 11 12 13 14 15 16 17 18 19 20 21 22 23 24 25 26 27 28 29 30 31 32 33 34 35 36 37 38 39 40 41 42 43 44 45 46 47 48 49 50
000
ASUS44 KCRP 292310
HRRCRP

SOUTH TEXAS REGIONAL WEATHER ROUNDUP
NATIONAL WEATHER SERVICE CORPUS CHRISTI TX
600 PM CDT MON JUN 29 2015


TXZ229>244-300000-
...CORPUS CHRISTI AREA OBSERVATIONS...

CITY           SKY/WX    TMP DP  RH WIND       PRES   REMARKS
CORPUS CHRISTI PTSUNNY   86  74  67 SE16      29.96R HX  94
NAS CORPUS CHR PTSUNNY   87  77  72 SE15      29.96S HX  99
ROCKPORT       MOSUNNY   88  76  67 SE15G24   29.96F HX  99
KINGSVILLE NAS PTSUNNY   88  79  74 SE16G23   29.95R HX 103
ALICE          LGT RAIN  88  76  67 SE17      29.94S HX  99
FALFURRIAS     SUNNY     90  76  63 E10G21    29.93R HX 102
$$

...VICTORIA AREA OBSERVATIONS...

CITY           SKY/WX    TMP DP  RH WIND       PRES   REMARKS
VICTORIA       CLOUDY    85  77  77 S15       29.96F HAZE    HX  95
BEEVILLE       FAIR      88  75  64 SE15G21   29.94F HX  98
PLEASANTON     SUNNY     93  59  32 SE8       29.94F HX  92
SAN ANTONIO    MOSUNNY   91  68  46 SE14      29.95F HX  95
$$

...LAREDO AREA OBSERVATIONS...

CITY           SKY/WX    TMP DP  RH WIND       PRES   REMARKS
LAREDO         SUNNY     96  59  29 SE16      29.91F HX  95
COTULLA        PTSUNNY   94  68  42 SE13      29.91F HX  98
DEL RIO        MOSUNNY   92  69  47 E10       29.90F HX  97
MCALLEN        MOSUNNY   94  70  45 SE17G25   29.91F HX 100
HEBBRONVILLE     N/A     92  63  37 SE13      29.94R HX  93
$$

...OTHER TEXAS OBSERVATIONS...

CITY           SKY/WX    TMP DP  RH WIND       PRES   REMARKS
BROWNSVILLE    MOSUNNY   90  75  61 SE17      29.94F HX 100
HOUSTON        PTSUNNY   87  73  62 S9        29.97S HX  94
COL. STATION   PTSUNNY   88  73  61 S10       29.95F HX  95
AUSTIN         MOSUNNY   90  71  53 S8        29.94F HX  96
WACO           CLOUDY    86  72  62 S10       29.92F THUNDER HX  92
FORT WORTH     MOSUNNY   94  66  39 VRB5      29.90F HX  97
WICHITA FALLS  PTSUNNY   91  67  44 S8        29.90F HX  94
LUBBOCK        PTSUNNY   89  55  31 S9        30.04R
EL PASO        LGT RAIN  94  47  20 N6G20     30.00F HX  90
$$

...MARINE OBSERVATIONS...

STATION/POSITION TIME  SKY/WX   TEMP    WIND        PRES    VSBY  WAVE   SWELL
                                AIR SEA DIR/SP/G                  HT/PER HT/PER
                 (UTC)          (F)     (DEG/KT/KT) (MB)    (MI)  (FT/S) (FT/S)
PORT ARANSAS     2200            84 82  140/ 14/ 15 1015.6F
BUOY 90 E PORT A NOT AVBL
BUOY 45 SE BAFFI 2250            84 85  100/ 14/ 16 1014.3F         3/ 7   2/ 7
BUOY 200 E PT IS 2250            85 84  150/ 12/ 14 1016.5R         2/ 5   2/ 6
BUOY 15 E GALVES 2250            84 83  200/ 12/ 14 1014.8F         2/ 6
$$


USA.gov is the U.S. government's official web portal to all federal, state and local government web resources and services.